Change the Weather History Date:

Friday, January 25, 2013

  Actual Average Record
Temperature  
Mean Temperature 8 °F -  
Max Temperature 17 °F 32 °F 58 °F (1938)
Min Temperature -2 °F 12 °F -25 °F (1935)
Degree Days  
Heating Degree Days 58    
Moisture  
Dew Point -7 °F    
Average Humidity 52    
Maximum Humidity 75    
Minimum Humidity 28    
Precipitation  
Precipitation 0.00 in - - ()
Sea Level Pressure  
Sea Level Pressure 30.25 in    
Wind  
Wind Speed 4 mph (NNW)    
Max Wind Speed 9 mph    
Max Gust Speed -    
Visibility 9 miles    
Events Snow    
Averages and records for this station are not official NWS values.
T = Trace of Precipitation, MM = Missing Value Source: NWS Daily Summary

Daily Weather History Graph

Daily Weather History Graph

Search for Another Location

Airport or City:

Trip Planner

Search our weather history database for the weather conditions in past years. The results will help you decide how hot, cold, wet, or windy it might be!

Date:

Astronomy

Jan. 25, 2013 Rise Set
Actual Time 7:12 AM EST 4:51 PM EST
Civil Twilight 6:41 AM EST 5:22 PM EST
Nautical Twilight 6:06 AM EST 5:57 PM EST
Astronomical Twilight 5:32 AM EST 6:31 PM EST
Moon 3:45 PM EST (1/25) 5:50 AM EST (1/25)
Length of Visible Light 10h 40m
Length of Day
9h 38m
Waxing Gibbous, 98% of the Moon is Illuminated
Jan 25
Waxing Gibbous
Jan 26
Full
Feb 3
Last Quarter
Feb 10
New
Feb 17
First Quarter

Hourly Weather History & Observations

Time (EST) Temp. Windchill Dew Point Humidity Pressure Visibility Wind Dir Wind Speed Gust Speed Precip Events Conditions
12:53 AM 3.9 °F -5.3 °F -9.9 °F 53% 30.32 in 10.0 mi North 4.6 mph - N/A   Clear
1:53 AM 1.9 °F -7.6 °F -9.0 °F 60% 30.34 in 10.0 mi North 4.6 mph - N/A   Clear
2:53 AM -0.0 °F -11.6 °F -9.9 °F 63% 30.35 in 10.0 mi NNE 5.8 mph - N/A   Clear
3:53 AM -0.9 °F -8.9 °F -9.9 °F 66% 30.33 in 10.0 mi NE 3.5 mph - N/A   Clear
4:53 AM -0.9 °F -8.9 °F -9.9 °F 66% 30.35 in 10.0 mi NE 3.5 mph - N/A   Clear
5:53 AM -2.9 °F - -9.9 °F 72% 30.35 in 10.0 mi Calm Calm - N/A   Clear
6:53 AM -2.9 °F - -9.0 °F 75% 30.36 in 10.0 mi Calm Calm - N/A   Clear
7:53 AM -0.0 °F - -9.9 °F 63% 30.37 in 10.0 mi Calm Calm - N/A   Clear
8:53 AM 1.9 °F -7.6 °F -9.9 °F 58% 30.37 in 10.0 mi NW 4.6 mph - N/A   Clear
9:53 AM 5.0 °F -6.9 °F -9.0 °F 52% 30.36 in 10.0 mi NW 6.9 mph - N/A   Clear
10:53 AM 9.0 °F -4.2 °F -9.9 °F 42% 30.33 in 10.0 mi WNW 9.2 mph - N/A   Clear
11:53 AM 12.0 °F 0.5 °F -9.9 °F 37% 30.29 in 10.0 mi WNW 8.1 mph - N/A   Clear
12:53 PM 15.1 °F 6.4 °F -9.0 °F 34% 30.25 in 10.0 mi NNW 5.8 mph - N/A   Clear
1:53 PM 16.0 °F 10.4 °F -11.0 °F 30% 30.22 in 10.0 mi West 3.5 mph - N/A   Clear
2:53 PM 17.1 °F - -11.0 °F 28% 30.21 in 10.0 mi Calm Calm - N/A   Clear
3:53 PM 16.0 °F 8.8 °F -7.1 °F 36% 30.20 in 10.0 mi SW 4.6 mph - N/A   Clear
4:53 PM 16.0 °F 10.4 °F -5.1 °F 39% 30.20 in 10.0 mi WSW 3.5 mph - N/A   Partly Cloudy
5:53 PM 14.0 °F - -2.0 °F 49% 30.18 in 10.0 mi Calm Calm - N/A   Mostly Cloudy
6:53 PM 14.0 °F - -2.9 °F 47% 30.17 in 10.0 mi Calm Calm - N/A   Mostly Cloudy
7:53 PM 14.0 °F 5.1 °F -4.0 °F 45% 30.14 in 10.0 mi NNE 5.8 mph - N/A   Overcast
8:53 PM 12.9 °F 6.9 °F -5.1 °F 45% 30.14 in 10.0 mi NNE 3.5 mph - N/A   Overcast
9:53 PM 12.9 °F - -5.1 °F 45% 30.12 in 10.0 mi Calm Calm - N/A   Overcast
10:53 PM 12.0 °F 4.1 °F 1.0 °F 61% 30.11 in 2.5 mi NNE 4.6 mph - 0.00 in Snow Light Snow
11:10 PM 10.4 °F 0.8 °F 1.4 °F 67% 30.06 in 4.0 mi NE 5.8 mph - 0.00 in Snow Light Snow
11:53 PM 10.9 °F 2.9 °F 3.9 °F 73% 30.10 in 3.0 mi NNE 4.6 mph - 0.00 in Snow Light Snow